Hourly Weather Rio Branco

Today, 5 July, Sunday

Time Temperature Precipitation Wind Pressure Humidity
00:00 +23°C° 0 mm 0 mps 744 mmHg 77%
01:00 +25°C° 0 mm 1 mps 744 mmHg 78%
02:00 +25°C° 0 mm 1 mps 744 mmHg 80%
03:00 +22°C° 0 mm 0 mps 744 mmHg 82%
04:00 +22°C° 0 mm 0 mps 744 mmHg 84%
05:00 +23°C° 0 mm 0 mps 745 mmHg 83%
06:00 +23°C° 0 mm 0 mps 745 mmHg 82%
07:00 +24°C° 0 mm 0 mps 746 mmHg 81%
08:00 +26°C° 0 mm 0 mps 746 mmHg 72%
09:00 +31°C° 0 mm 1 mps 746 mmHg 63%
10:00 +33°C° 0 mm 1 mps 747 mmHg 55%
11:00 +33°C° 0.3 mm 1 mps 746 mmHg 55%
12:00 +33°C° 0.3 mm 1 mps 745 mmHg 56%
13:00 +34°C° 0.3 mm 2 mps 744 mmHg 57%
14:00 +33°C° 0.3 mm 1 mps 743 mmHg 61%
15:00 +32°C° 0.3 mm 1 mps 743 mmHg 64%
16:00 +30°C° 0.3 mm 0 mps 743 mmHg 68%
17:00 +28°C° 0.1 mm 0 mps 743 mmHg 73%
18:00 +26°C° 0.1 mm 0 mps 743 mmHg 79%
19:00 +24°C° 0.1 mm 0 mps 744 mmHg 84%
20:00 +24°C° 0 mm 0 mps 744 mmHg 85%
21:00 +24°C° 0 mm 0 mps 745 mmHg 86%
22:00 +24°C° 0 mm 0 mps 745 mmHg 86%
23:00 +23°C° 0.3 mm 0 mps 745 mmHg 89%

Tomorrow, 6 July, Monday

Time Temperature Precipitation Wind Pressure Humidity
00:00 +23°C° 0.3 mm 0 mps 745 mmHg 91%
01:00 +24°C° 0.3 mm 1 mps 745 mmHg 93%
02:00 +22°C° 0.1 mm 0 mps 745 mmHg 94%
03:00 +22°C° 0.1 mm 0 mps 744 mmHg 95%
04:00 +22°C° 0.1 mm 0 mps 744 mmHg 96%
05:00 +22°C° 0 mm 0 mps 745 mmHg 94%
06:00 +23°C° 0 mm 0 mps 745 mmHg 93%
07:00 +23°C° 0 mm 0 mps 746 mmHg 91%
08:00 +26°C° 0 mm 0 mps 746 mmHg 81%
09:00 +29°C° 0 mm 0 mps 746 mmHg 70%
10:00 +31°C° 0 mm 0 mps 747 mmHg 59%
11:00 +34°C° 0 mm 1 mps 746 mmHg 54%
12:00 +35°C° 0 mm 1 mps 745 mmHg 50%
13:00 +36°C° 0 mm 1 mps 744 mmHg 45%
14:00 +35°C° 0 mm 1 mps 743 mmHg 48%
15:00 +33°C° 0 mm 0 mps 743 mmHg 51%
16:00 +32°C° 0 mm 0 mps 742 mmHg 54%
17:00 +30°C° 0 mm 0 mps 743 mmHg 59%
18:00 +28°C° 0 mm 0 mps 743 mmHg 63%
19:00 +26°C° 0 mm 0 mps 743 mmHg 68%
20:00 +26°C° 0 mm 0 mps 744 mmHg 70%
21:00 +25°C° 0 mm 0 mps 744 mmHg 71%
22:00 +25°C° 0 mm 0 mps 745 mmHg 72%
23:00 +25°C° 0 mm 0 mps 745 mmHg 73%

Day after tomorrow, 7 July, Tuesday

Time Temperature Precipitation Wind Pressure Humidity
00:00 +25°C° 0 mm 0 mps 745 mmHg 74%
01:00 +24°C° 0 mm 0 mps 744 mmHg 75%
02:00 +24°C° 0 mm 0 mps 744 mmHg 78%
03:00 +25°C° 0 mm 1 mps 744 mmHg 80%
04:00 +25°C° 0 mm 1 mps 744 mmHg 83%
05:00 +25°C° 0 mm 1 mps 745 mmHg 82%
06:00 +26°C° 0 mm 1 mps 745 mmHg 82%
07:00 +26°C° 0 mm 1 mps 746 mmHg 82%
08:00 +28°C° 0 mm 1 mps 746 mmHg 75%
09:00 +30°C° 0 mm 1 mps 746 mmHg 68%
10:00 +32°C° 0 mm 2 mps 746 mmHg 61%
11:00 +33°C° 0 mm 1 mps 745 mmHg 57%
12:00 +34°C° 0 mm 1 mps 744 mmHg 53%
13:00 +34°C° 0 mm 1 mps 743 mmHg 49%
14:00 +34°C° 0 mm 1 mps 743 mmHg 53%
15:00 +33°C° 0 mm 1 mps 742 mmHg 57%
16:00 +32°C° 0 mm 1 mps 742 mmHg 61%
17:00 +31°C° 0 mm 1 mps 742 mmHg 65%
18:00 +29°C° 0 mm 1 mps 743 mmHg 70%
19:00 +28°C° 0 mm 1 mps 743 mmHg 74%
20:00 +27°C° 0 mm 1 mps 743 mmHg 77%
21:00 +27°C° 0 mm 1 mps 744 mmHg 80%
22:00 +26°C° 0 mm 1 mps 745 mmHg 83%
23:00 +26°C° 0 mm 1 mps 744 mmHg 85%

8 July, Wednesday

Time Temperature Precipitation Wind Pressure Humidity
00:00 +25°C° 0 mm 1 mps 744 mmHg 87%
01:00 +25°C° 0 mm 1 mps 744 mmHg 89%
02:00 +25°C° 0 mm 1 mps 744 mmHg 91%
03:00 +24°C° 0 mm 1 mps 744 mmHg 93%
04:00 +24°C° 0 mm 1 mps 744 mmHg 94%
05:00 +25°C° 0 mm 1 mps 745 mmHg 92%
06:00 +23°C° 0 mm 0 mps 745 mmHg 90%
07:00 +24°C° 0 mm 0 mps 746 mmHg 88%
08:00 +28°C° 0 mm 1 mps 746 mmHg 78%
09:00 +30°C° 0 mm 1 mps 746 mmHg 67%
10:00 +32°C° 0 mm 2 mps 746 mmHg 57%
11:00 +34°C° 0.1 mm 2 mps 746 mmHg 54%
12:00 +35°C° 0.1 mm 2 mps 745 mmHg 51%
13:00 +36°C° 0.1 mm 2 mps 744 mmHg 48%
14:00 +34°C° 0.1 mm 1 mps 744 mmHg 53%
15:00 +33°C° 0.1 mm 1 mps 743 mmHg 58%
16:00 +32°C° 0.1 mm 1 mps 743 mmHg 63%
17:00 +30°C° 0.2 mm 1 mps 744 mmHg 71%
18:00 +28°C° 0.2 mm 1 mps 744 mmHg 78%
19:00 +26°C° 0.2 mm 1 mps 745 mmHg 86%
20:00 +26°C° 0.1 mm 1 mps 745 mmHg 88%
21:00 +25°C° 0.1 mm 1 mps 745 mmHg 90%
22:00 +23°C° 0.1 mm 0 mps 746 mmHg 92%
23:00 +22°C° 0.4 mm 0 mps 746 mmHg 93%

9 July, Thursday

Time Temperature Precipitation Wind Pressure Humidity
00:00 +22°C° 0.4 mm 0 mps 746 mmHg 94%
01:00 +22°C° 0.4 mm 0 mps 746 mmHg 95%
02:00 +22°C° 1.6 mm 0 mps 746 mmHg 96%
03:00 +24°C° 1.6 mm 1 mps 746 mmHg 97%
04:00 +23°C° 1.6 mm 1 mps 746 mmHg 98%
05:00 +24°C° 1.2 mm 1 mps 746 mmHg 98%
06:00 +24°C° 1.2 mm 1 mps 747 mmHg 98%
07:00 +24°C° 1.2 mm 2 mps 748 mmHg 97%
08:00 +25°C° 0 mm 2 mps 748 mmHg 91%
09:00 +27°C° 0 mm 2 mps 748 mmHg 85%
10:00 +28°C° 0 mm 2 mps 749 mmHg 79%
11:00 +28°C° 0.6 mm 2 mps 748 mmHg 80%
12:00 +28°C° 0.6 mm 2 mps 747 mmHg 80%
13:00 +29°C° 0.6 mm 3 mps 747 mmHg 81%
14:00 +28°C° 0.5 mm 2 mps 746 mmHg 83%
15:00 +27°C° 0.5 mm 2 mps 746 mmHg 84%
16:00 +27°C° 0.5 mm 2 mps 746 mmHg 86%
17:00 +26°C° 0 mm 2 mps 746 mmHg 87%
18:00 +25°C° 0 mm 2 mps 746 mmHg 89%
19:00 +24°C° 0 mm 2 mps 747 mmHg 90%
20:00 +24°C° 0 mm 2 mps 747 mmHg 91%
21:00 +23°C° 0 mm 1 mps 747 mmHg 93%
22:00 +22°C° 0 mm 1 mps 747 mmHg 94%
23:00 +22°C° 0 mm 1 mps 747 mmHg 95%

10 July, Friday

Time Temperature Precipitation Wind Pressure Humidity
00:00 +22°C° 0 mm 1 mps 747 mmHg 95%
01:00 +20°C° 0 mm 2 mps 747 mmHg 96%
02:00 +21°C° 0 mm 2 mps 747 mmHg 93%
03:00 +21°C° 0 mm 2 mps 747 mmHg 91%
04:00 +21°C° 0 mm 2 mps 747 mmHg 89%
05:00 +22°C° 0 mm 1 mps 748 mmHg 88%
06:00 +22°C° 0 mm 1 mps 748 mmHg 87%
07:00 +23°C° 0 mm 1 mps 749 mmHg 86%
08:00 +25°C° 0 mm 1 mps 749 mmHg 78%
09:00 +27°C° 0 mm 1 mps 749 mmHg 69%
10:00 +29°C° 0 mm 1 mps 749 mmHg 61%
11:00 +30°C° 0 mm 1 mps 748 mmHg 57%
12:00 +32°C° 0 mm 1 mps 748 mmHg 53%
13:00 +33°C° 0 mm 1 mps 747 mmHg 49%
14:00 +33°C° 0 mm 1 mps 746 mmHg 52%
15:00 +32°C° 0 mm 1 mps 745 mmHg 54%
16:00 +32°C° 0 mm 1 mps 745 mmHg 57%
17:00 +30°C° 0 mm 1 mps 745 mmHg 62%
18:00 +26°C° 0 mm 0 mps 745 mmHg 66%
19:00 +24°C° 0 mm 0 mps 746 mmHg 71%
20:00 +24°C° 0 mm 0 mps 746 mmHg 71%
21:00 +23°C° 0 mm 0 mps 747 mmHg 72%
22:00 +23°C° 0 mm 0 mps 747 mmHg 72%
23:00 +25°C° 0 mm 1 mps 747 mmHg 75%
Show more